[[{"header":{"parameterUnit":"m.s-1","parameterCategory":1,"la1":30.2991,"la2":30.254,"lo1":-89.0895,"lo2":-89.0444,"dy":0.0017,"dx":0.0017,"nx":28,"ny":28,"refTime":"2026-01-01T03:00:00:Z","depth":0,"parameterNumber":2,"parameterNumberName":"U-component_of_WINDS"},"data":[0,0,0,0,0,0,0,0,0,0,0,0,0,0,0,0,0,0,0,0,0,0,0,0,0,0,0,0,0,0,0,0,0,0,0,0,0,0,0,0,0,0,0,0,0,0,0,0,0,0,0,0,0,0,0,0,0,0,4.6507,4.651,0,4.6734,4.6736,4.6739,4.6704,4.67,4.6696,4.6692,4.6928,4.6938,4.6947,0,0,0,0,0,0,0,0,0,0,0,0,0,4.6047,4.6056,4.6507,4.651,4.6513,4.6733,4.6736,4.6739,4.6705,4.67,4.6695,4.6691,4.6925,4.6936,4.6948,0,0,0,0,0,0,0,0,0,0,0,0,0,4.6258,4.6059,4.6507,4.6522,4.6525,4.6733,4.6736,4.674,4.6706,4.67,4.6694,4.6688,4.6921,4.6935,4.695,4.7157,0,0,4.6995,4.7001,0,0,0,0,0,0,0,0,4.6246,4.6275,4.6517,4.6521,4.6526,4.6684,4.666,4.688,4.6707,4.6637,4.6692,4.6686,4.6852,4.6872,4.6927,4.7168,4.7178,4.6996,4.7005,4.7012,4.7016,0,0,0,0,0,0,0,4.6231,4.6265,4.6597,4.652,4.6526,4.6518,4.6542,4.6702,4.6774,4.6643,4.6641,4.6668,4.6853,4.6913,4.6933,4.7182,4.6996,4.7009,4.7018,4.7024,4.7603,4.7609,0,0,0,0,0,0,4.6212,4.6253,4.659,4.6604,4.6368,4.6531,4.6557,4.6639,4.6773,4.6787,4.6673,4.6665,4.6891,4.6915,4.6941,4.7191,4.7012,4.7025,4.7034,4.7597,4.7605,4.7612,0,0,0,0,0,0,4.6202,4.6242,4.658,4.6428,4.647,4.6545,4.6638,4.6647,4.6707,4.6795,4.6808,4.672,4.6887,4.692,4.7103,4.7199,4.7032,4.7046,4.7589,4.7599,4.7608,4.7695,0,0,0,0,0,0,4.6189,4.6239,4.6318,4.643,4.6478,4.6739,4.6644,4.6656,4.6732,4.6725,4.6843,4.6857,4.6885,4.7081,4.7118,4.7216,4.7057,4.7581,4.7593,4.7605,4.7684,4.7706,4.7726,0,0,0,0,0,4.6173,4.6335,4.6322,4.6363,4.6579,4.6744,4.6772,4.68,4.674,4.682,4.6877,4.6854,4.7183,4.71,4.7141,4.7246,4.7575,4.759,4.7604,4.7674,4.7702,4.7725,0,0,0,0,0,0,4.6234,4.635,4.6337,4.654,4.6632,4.6738,4.684,4.6828,4.6941,4.6929,4.696,4.6987,4.7172,4.7227,4.7134,4.7453,4.7371,4.7394,4.741,4.7437,4.7457,4.744,4.7069,0,0,0,0,0,4.6271,4.6394,4.6489,4.6659,4.6706,4.6765,4.6838,4.6851,4.6949,4.6988,4.7058,4.7155,4.7279,4.7361,4.7481,4.7691,4.7717,4.7784,4.7804,4.7821,4.7841,4.7956,4.7986,4.766,4.766,4.7659,0,0,4.6349,4.6427,4.6504,4.6673,4.6746,4.6874,4.6798,4.6937,4.7033,4.701,4.7186,4.7241,4.7351,4.7548,4.7638,4.76,4.7937,4.784,4.7853,4.7864,4.7974,4.8005,4.8032,4.767,4.7668,4.7666,0,0,4.6555,4.6627,4.6776,4.685,4.6961,4.7,4.7035,4.7143,4.7178,4.7355,4.734,4.7455,4.767,4.7748,4.7816,4.8051,4.8034,4.809,4.8199,4.831,4.8336,4.8359,4.8442,4.8472,4.8109,4.8109,4.811,0,4.6638,4.683,4.6854,4.6995,4.7069,4.7053,4.7203,4.7275,4.742,4.7473,4.7427,4.7695,4.7768,4.7983,4.804,4.8096,4.8137,4.8076,4.833,4.8353,4.8375,4.8455,4.8486,4.8115,4.8115,4.8114,4.8114,0,4.6926,4.7059,4.7166,4.7304,4.7391,4.7537,4.7583,4.7669,4.7674,4.7717,4.7898,4.7984,4.812,4.8173,4.818,4.8389,4.8361,4.8323,4.824,4.8412,4.8487,4.8518,4.8124,4.8122,4.812,4.8119,0,0,4.7179,4.7328,4.7367,4.7429,4.7549,4.7653,4.7797,4.7929,4.8002,4.8102,4.8224,4.8405,4.837,4.8447,4.8463,4.8561,4.874,4.851,4.8513,4.8549,4.8975,4.9002,4.9037,4.8729,4.8735,4.874,4.8965,0,4.7397,4.765,4.7675,4.7902,4.8025,4.801,4.8136,4.8224,4.8268,4.8379,4.8428,4.8556,4.85,4.8546,4.8642,4.8698,4.8826,4.8682,4.8843,4.8849,4.8816,4.9077,4.9107,4.9316,4.8995,4.9,4.9004,0,4.7685,4.7792,4.8031,4.8133,4.8185,4.8298,4.842,4.8526,4.8626,4.8651,4.8736,4.8739,4.8888,4.88,4.9005,4.8907,4.8974,4.9012,4.902,4.9036,4.8936,4.9099,4.9383,4.9414,4.9051,4.9047,4.9043,0,4.7845,4.8048,4.8217,4.8271,4.8395,4.8474,4.8529,4.8623,4.87,4.8808,4.8858,4.8982,4.905,4.9146,4.9182,4.9115,4.9386,4.9301,4.9411,4.941,4.9469,4.9464,4.9766,4.9513,4.9513,4.9512,4.9511,0,4.8085,4.8232,4.829,4.8394,4.8557,4.8585,4.8747,4.8799,4.8882,4.8996,4.8991,4.9098,4.9139,4.9254,4.9283,4.9448,4.9479,4.9504,4.951,4.9504,4.9501,4.9549,4.9535,4.952,4.9518,4.9517,4.9515,0,4.8291,4.8336,4.8519,4.862,4.8649,4.8765,4.8852,4.8953,4.8994,4.9139,4.9174,4.9241,4.9374,4.942,4.9583,4.9602,4.9794,4.9788,4.976,4.9761,4.9868,4.9857,5.0211,5.0258,4.9974,4.9977,4.9979,0,4.8442,4.8554,4.8666,4.8741,4.8799,4.8921,4.8999,4.9031,4.9113,4.9233,4.932,4.9452,4.9559,4.9774,4.9837,4.9962,4.9958,5.0073,4.9977,4.9967,4.9959,4.9952,4.9963,5.0091,5.0094,5.0097,5.0099,0,4.8704,4.872,4.8832,4.8952,4.9045,4.9142,4.9235,4.9298,4.9343,4.9435,4.9571,4.9654,4.9819,4.9951,5.0077,5.0135,5.0125,5.0128,5.016,5.0155,5.0134,5.0146,4.9809,5.012,5.0118,5.0116,5.0115,5.0114,4.8887,4.8985,4.9079,4.9204,4.9277,4.9364,4.9462,4.9516,4.9629,4.9765,4.9777,4.9923,5.0019,5.0187,5.0251,5.0367,5.0334,5.0381,5.0393,5.0403,5.0411,5.0116,5.039,5.0389,5.0389,5.0388,5.0388,0,4.9148,4.9207,4.9321,4.9451,4.9549,4.9529,4.9631,4.9715,4.9843,4.9933,5.0038,5.0193,5.032,5.0393,5.052,5.0598,5.0597,5.0631,5.0625,5.0638,5.0433,5.0392,5.063,5.063,5.063,5.063,5.063,5.0629,4.9295,4.946,4.9487,4.9687,4.9746,4.9888,4.9948,5.0028,5.0099,5.0273,5.0377,5.0423,5.0506,5.0639,5.0754,5.0772,5.0819,5.0856,5.0871,5.0678,5.0653,5.0629,5.0591,5.0866,5.0867,5.1067,5.1069,5.107]},{"header":{"parameterUnit":"m.s-1","parameterCategory":1,"la1":30.2991,"la2":30.254,"lo1":-89.0895,"lo2":-89.0444,"dy":0.0017,"dx":0.0017,"nx":28,"ny":28,"refTime":"2026-01-01T03:00:00:Z","depth":0,"parameterNumber":3,"parameterNumberName":"V-component_of_WINDS"},"data":[0,0,0,0,0,0,0,0,0,0,0,0,0,0,0,0,0,0,0,0,0,0,0,0,0,0,0,0,0,0,0,0,0,0,0,0,0,0,0,0,0,0,0,0,0,0,0,0,0,0,0,0,0,0,0,0,0,0,-0.6186,-0.6186,0,-0.6241,-0.6242,-0.6242,-0.6263,-0.6263,-0.6263,-0.6263,-0.632,-0.6322,-0.6324,0,0,0,0,0,0,0,0,0,0,0,0,0,-0.6099,-0.6101,-0.6185,-0.6186,-0.6187,-0.6241,-0.6242,-0.6242,-0.6263,-0.6263,-0.6263,-0.6262,-0.632,-0.6322,-0.6324,0,0,0,0,0,0,0,0,0,0,0,0,0,-0.6144,-0.6101,-0.6185,-0.6204,-0.6206,-0.6241,-0.6242,-0.6243,-0.6263,-0.6263,-0.6263,-0.6262,-0.6319,-0.6322,-0.6324,-0.6345,0,0,-0.6332,-0.6333,0,0,0,0,0,0,0,0,-0.6141,-0.6147,-0.62,-0.6202,-0.6205,-0.6245,-0.6233,-0.6277,-0.6263,-0.6241,-0.6263,-0.6262,-0.6296,-0.63,-0.6311,-0.6348,-0.635,-0.6332,-0.6334,-0.6335,-0.6336,0,0,0,0,0,0,0,-0.6138,-0.6145,-0.6208,-0.6201,-0.6204,-0.621,-0.6216,-0.6241,-0.6269,-0.6243,-0.6245,-0.6251,-0.6297,-0.6309,-0.6313,-0.6351,-0.6332,-0.6334,-0.6336,-0.6337,-0.641,-0.641,0,0,0,0,0,0,-0.6132,-0.6142,-0.6206,-0.6209,-0.6172,-0.6211,-0.6218,-0.6232,-0.6269,-0.6274,-0.6251,-0.6252,-0.6304,-0.631,-0.6315,-0.6342,-0.6335,-0.6337,-0.6339,-0.6409,-0.641,-0.641,0,0,0,0,0,0,-0.613,-0.6137,-0.6204,-0.6176,-0.6185,-0.6213,-0.6229,-0.6234,-0.6245,-0.6275,-0.628,-0.6258,-0.6304,-0.6311,-0.6338,-0.6345,-0.6338,-0.6341,-0.6409,-0.641,-0.641,-0.6398,0,0,0,0,0,0,-0.6127,-0.6137,-0.6144,-0.6176,-0.6186,-0.6225,-0.6229,-0.6235,-0.625,-0.6251,-0.6283,-0.6288,-0.6305,-0.6334,-0.634,-0.6348,-0.6343,-0.6408,-0.6409,-0.641,-0.6398,-0.6398,-0.6398,0,0,0,0,0,-0.6124,-0.6139,-0.6145,-0.6152,-0.6197,-0.6225,-0.6231,-0.625,-0.625,-0.6258,-0.6278,-0.6287,-0.6343,-0.6336,-0.6344,-0.6353,-0.6408,-0.6409,-0.641,-0.6398,-0.6398,-0.6398,0,0,0,0,0,0,-0.6107,-0.6143,-0.615,-0.6175,-0.6197,-0.6229,-0.624,-0.6249,-0.6272,-0.6272,-0.6295,-0.6302,-0.6327,-0.6343,-0.6334,-0.6376,-0.6376,-0.6379,-0.6364,-0.6365,-0.6365,-0.6361,-0.6345,0,0,0,0,0,-0.6106,-0.6126,-0.6156,-0.6176,-0.6186,-0.6211,-0.6224,-0.6237,-0.6261,-0.627,-0.6291,-0.6314,-0.6338,-0.6352,-0.6375,-0.64,-0.6408,-0.641,-0.641,-0.641,-0.6412,-0.6428,-0.6429,-0.6413,-0.6413,-0.6413,0,0,-0.6104,-0.6126,-0.6137,-0.6173,-0.6191,-0.6212,-0.6219,-0.624,-0.6256,-0.6273,-0.63,-0.6317,-0.6344,-0.637,-0.6383,-0.6384,-0.6418,-0.6411,-0.6411,-0.6413,-0.6429,-0.643,-0.6432,-0.6414,-0.6414,-0.6414,0,0,-0.6111,-0.613,-0.6148,-0.6167,-0.6195,-0.6211,-0.6216,-0.6247,-0.6258,-0.6285,-0.6299,-0.6319,-0.6358,-0.6377,-0.6392,-0.6408,-0.6417,-0.6415,-0.6415,-0.643,-0.6432,-0.6433,-0.6439,-0.6441,-0.6416,-0.6416,-0.6416,0,-0.6106,-0.6137,-0.6157,-0.6177,-0.6193,-0.621,-0.6229,-0.6246,-0.628,-0.6291,-0.6292,-0.6342,-0.6361,-0.6393,-0.6397,-0.6408,-0.6415,-0.6411,-0.643,-0.6431,-0.6433,-0.6439,-0.6441,-0.6416,-0.6416,-0.6416,-0.6416,0,-0.6129,-0.615,-0.6162,-0.6194,-0.6211,-0.6231,-0.6254,-0.6269,-0.6281,-0.6298,-0.6326,-0.635,-0.6378,-0.6387,-0.6398,-0.6421,-0.642,-0.6425,-0.6426,-0.6433,-0.644,-0.6442,-0.6415,-0.6415,-0.6415,-0.6416,0,0,-0.6126,-0.617,-0.6173,-0.6189,-0.6221,-0.6239,-0.626,-0.6288,-0.63,-0.6324,-0.6342,-0.6376,-0.6381,-0.6398,-0.6412,-0.6425,-0.6437,-0.6428,-0.6429,-0.6429,-0.6464,-0.646,-0.6462,-0.6443,-0.6444,-0.6444,-0.6461,0,-0.6138,-0.6176,-0.6195,-0.6225,-0.6245,-0.6263,-0.6281,-0.6304,-0.632,-0.6341,-0.636,-0.6383,-0.6388,-0.6398,-0.6412,-0.6432,-0.6444,-0.6431,-0.6462,-0.6463,-0.6454,-0.6465,-0.6461,-0.6476,-0.6464,-0.6464,-0.6465,0,-0.6156,-0.6179,-0.6211,-0.6243,-0.6252,-0.6268,-0.6296,-0.6315,-0.6341,-0.6353,-0.6372,-0.6386,-0.641,-0.641,-0.6444,-0.6435,-0.6448,-0.6461,-0.6462,-0.6465,-0.6464,-0.6469,-0.6481,-0.6483,-0.6469,-0.6468,-0.6468,0,-0.6151,-0.6191,-0.6215,-0.6228,-0.6264,-0.6276,-0.6292,-0.6318,-0.6333,-0.6358,-0.6368,-0.6395,-0.641,-0.6431,-0.6452,-0.645,-0.6484,-0.6486,-0.6495,-0.6494,-0.6501,-0.65,-0.6515,-0.651,-0.651,-0.651,-0.651,0,-0.6162,-0.6182,-0.6213,-0.6228,-0.6251,-0.6273,-0.6294,-0.6312,-0.6335,-0.6355,-0.6371,-0.6389,-0.6416,-0.6438,-0.6455,-0.6481,-0.6487,-0.6498,-0.6502,-0.6496,-0.6495,-0.6505,-0.6505,-0.6511,-0.651,-0.651,-0.651,0,-0.616,-0.6182,-0.621,-0.6243,-0.6252,-0.6267,-0.6295,-0.6311,-0.6329,-0.6353,-0.6361,-0.6389,-0.6415,-0.6439,-0.6474,-0.6485,-0.6512,-0.6517,-0.6503,-0.6505,-0.6513,-0.6512,-0.6536,-0.654,-0.6531,-0.6531,-0.6531,0,-0.6166,-0.6181,-0.6216,-0.623,-0.6245,-0.6268,-0.6284,-0.6307,-0.6323,-0.6355,-0.6367,-0.6395,-0.6418,-0.646,-0.6484,-0.6511,-0.6518,-0.6524,-0.6522,-0.6516,-0.6518,-0.6517,-0.6519,-0.6524,-0.6524,-0.6524,-0.6524,0,-0.6174,-0.6184,-0.6207,-0.6233,-0.6252,-0.6274,-0.6297,-0.6308,-0.6335,-0.6353,-0.638,-0.6398,-0.6434,-0.6462,-0.6492,-0.651,-0.6522,-0.6524,-0.6528,-0.6522,-0.6513,-0.6519,-0.6503,-0.6523,-0.6523,-0.6524,-0.6524,-0.6524,-0.6176,-0.6191,-0.6217,-0.6242,-0.6262,-0.6283,-0.6299,-0.632,-0.6342,-0.6373,-0.6386,-0.6413,-0.6441,-0.6483,-0.65,-0.6523,-0.6525,-0.653,-0.6532,-0.6533,-0.6532,-0.651,-0.6529,-0.6529,-0.6529,-0.6529,-0.6529,0,-0.6185,-0.6203,-0.6226,-0.6257,-0.6277,-0.6286,-0.6312,-0.6328,-0.6352,-0.6377,-0.6399,-0.6431,-0.6458,-0.6485,-0.6514,-0.6527,-0.6534,-0.6534,-0.6533,-0.6537,-0.6528,-0.6522,-0.6529,-0.6529,-0.6529,-0.6529,-0.6529,-0.6529,-0.6192,-0.6217,-0.6231,-0.6267,-0.6285,-0.6312,-0.6326,-0.6346,-0.6366,-0.64,-0.6423,-0.644,-0.6466,-0.6497,-0.6522,-0.653,-0.654,-0.6539,-0.6547,-0.6538,-0.6538,-0.6538,-0.6532,-0.6541,-0.6541,-0.6555,-0.6555,-0.6555]}]]